Home > Weather > Citrus Heights > Past weeks

Flag for USA Past Weather in Citrus Heights, California, USA — Yesterday and Last 2 Weeks

Now
75 °F

Clear.


Feels Like: 77 °F
Forecast: 68 / 103 °F
Wind: 7 mph from South

Location: Mather Field

Current Time: Jul 30, 2016 at 12:34:10 AM

Latest Report: Jul 29, 2016 at 10:50 PM


Visibility: 10 mi

Pressure: 29.73 "Hg

Humidity: 36%

Dew Point: 46 °F

Location of Citrus HeightsLocation

Past Weather in Citrus Heights — Graph

°F

Citrus Heights Temperature Yesterday

Maximum temperature yesterday: 104 °F (at 5:45 PM)
Minimum temperature yesterday: 64 °F (at 4:55 AM)
Average temperature yesterday: 83 °F

High & Low Weather Summary for the Past Weeks

 TemperatureHumidityPressure
High104 °F (Jul 26, 3:49 PM)88% (Jul 16, 6:45 AM)30.09 "Hg (Jul 16, 6:45 AM)
Low54 °F (Jul 17, 5:45 AM)9% (Jul 26, 3:49 PM)29.69 "Hg (Jul 29, 6:45 PM)
Average78 °F41%29.89 "Hg
* Reported Jul 14 10:50 PM — Jul 29 10:50 PM, Citrus Heights, Weather by CustomWeather, © 2016

Note: Actual official high and low records may vary slightly from our data, if they occured in-between our weather recording intervals... More about our weather records

Advertising

Citrus Heights Weather History for the Previous 24 Hours

Scroll right to see more
 ConditionsComfort  
Time TempWeatherWind HumidityBarometerVisibility
10:50 PM
Fri, Jul 29
75 °FClear.7 mph36%29.73 "Hg10 mi
9:50 PM82 °FClear.6 mph26%29.72 "Hg10 mi
8:45 PM86 °FSunny.6 mph27%29.71 "Hg10 mi
7:45 PM95 °FSunny.7 mph18%29.70 "Hg10 mi
6:45 PM100 °FSunny.12 mph12%29.69 "Hg10 mi
5:45 PM104 °FSunny.10 mph14%29.70 "Hg10 mi
3:50 PM102 °FSunny.7 mph16%29.73 "Hg10 mi
2:46 PM100 °FScattered clouds.7 mph18%29.75 "Hg10 mi
12:46 PM91 °FScattered clouds.3 mph28%29.80 "Hg10 mi
11:45 AM86 °FScattered clouds.5 mph31%29.81 "Hg10 mi
10:50 AM82 °FScattered clouds.5 mph37%29.82 "Hg10 mi
9:55 AM79 °FScattered clouds.5 mph42%29.82 "Hg10 mi
8:45 AM73 °FSunny.7 mph50%29.82 "Hg10 mi
7:45 AM72 °FPassing clouds.5 mph50%29.81 "Hg10 mi
6:50 AM66 °FPassing clouds.6 mph56%29.81 "Hg10 mi
5:55 AM64 °FPassing clouds.7 mph60%29.79 "Hg10 mi
4:55 AM64 °FClear.6 mph56%29.78 "Hg10 mi
3:55 AM68 °FClear.3 mph49%29.78 "Hg10 mi
Weather by CustomWeather, © 2016

See weather overviewHow to use our weather pages